Theta_e
306 306 306 306 307 306 306 306 307 307 307 306 306 306 307 308 306 301 305 306 304 305 305 304 304 302 305 306 311 315 315 312 312 314 315 318 321 322 319 322 324 324 324 329 332
305 306 306 307 307 307 306 305 307 307 306 306 306 307 307 306 304 305 308 310 306 308 305 305 304 303 303 306 307 312 308 306 308 313 314 315 315 315 318 322 323 324 324 321 323
304 304 305 306 308 306 307 306 306 307 308 308 307 307 306 304 302 305 307 307 305 303 301 304 304 303 302 305 304 305 306 304 307 309 309 311 312 313 315 319 320 322 320 317 316
303 301 302 305 305 305 306 306 306 307 307 307 307 307 304 303 302 302 306 306 307 306 304 302 302 302 303 302 303 304 303 304 303 304 304 304 306 309 310 313 314 313 313 312 317
302 303 304 302 302 305 305 306 306 307 307 308 308 307 305 304 304 300 300 300 301 303 303 302 301 300 301 302 302 303 302 301 301 302 302 302 302 303 304 306 306 307 308 310 316
303 303 301 301 301 303 306 306 307 307 307 307 308 306 305 305 301 300 300 300 300 300 300 300 300 300 300 300 301 301 302 302 302 302 302 303 302 301 300 302 304 306 308 311 315
303 302 302 303 305 306 306 306 307 307 307 307 307 306 305 305 302 302 301 301 301 300 301 301 300 301 301 302 302 302 303 302 302 301 301 301 301 300 301 301 301 302 305 307 309
302 303 304 306 305 304 303 303 304 305 306 306 306 305 304 302 301 301 301 301 300 301 301 300 300 301 302 301 301 302 302 304 302 301 301 301 301 301 300 300 301 301 302 304 308
301 302 305 304 304 303 302 302 301 304 302 300 303 303 303 300 299 298 299 300 300 300 300 300 301 302 302 303 303 303 304 304 303 301 301 301 301 301 300 299 299 299 299 301 305
305 306 304 302 302 302 302 301 300 298 301 300 300 301 299 298 296 297 297 300 301 301 302 302 302 305 304 304 304 304 303 303 303 301 300 301 302 301 301 300 300 300 301 302 303
304 302 302 302 303 303 303 299 300 300 298 298 297 299 298 297 295 296 297 300 301 301 303 303 305 305 304 303 303 303 304 303 303 301 300 301 301 301 301 301 302 302 302 302 302
302 302 302 302 302 303 299 299 298 297 299 295 295 295 295 295 298 298 298 300 300 302 303 305 305 304 304 303 303 304 305 306 304 302 300 301 301 301 300 300 300 301 301 303 303
303 303 302 302 304 300 299 298 297 296 296 294 293 295 297 298 299 298 299 301 302 303 304 305 305 304 305 305 306 305 305 305 305 303 301 300 302 301 301 300 300 300 300 300 301
304 304 303 304 301 299 299 298 297 295 298 295 294 297 296 295 297 297 299 302 304 305 304 306 304 304 306 306 306 308 305 305 304 306 305 301 303 301 301 301 301 301 300 300 301
305 304 304 302 300 299 298 296 295 294 300 293 293 293 294 295 297 300 301 302 303 304 304 305 306 307 307 305 305 308 305 306 304 305 304 303 303 301 300 300 300 301 300 301 302
305 304 303 300 298 297 296 294 294 300 298 291 292 294 294 295 296 298 301 302 302 303 304 305 304 304 305 305 306 304 304 303 303 304 305 303 304 302 301 301 301 301 300 301 303
304 303 300 299 298 294 294 294 301 298 289 294 293 294 294 295 297 298 298 300 304 306 305 305 306 304 305 307 305 305 304 305 305 305 303 300 302 303 303 305 305 304 301 305 309
302 300 294 293 293 294 292 302 296 285 289 291 293 293 294 295 298 296 298 301 302 304 306 303 304 307 306 307 308 305 304 305 304 302 302 299 302 303 304 303 303 304 307 306 304
299 294 294 294 295 295 298 300 296 289 292 293 293 294 294 294 295 296 297 298 302 304 303 301 304 304 304 306 306 307 306 303 307 305 307 306 307 305 302 304 307 305 303 303 301
295 295 294 294 292 291 299 294 290 289 292 293 294 292 294 295 296 297 297 299 301 302 300 300 303 308 307 305 304 306 305 307 308 307 313 310 307 303 303 303 303 302 300 299 299
296 298 293 294 289 294 298 291 286 289 292 293 294 294 294 295 296 296 297 299 301 299 298 301 302 306 308 305 304 305 307 308 309 306 314 310 305 301 302 301 301 300 299 299 298
294 300 292 292 297 282 292 285 288 293 294 293 294 295 295 295 296 296 298 298 299 298 299 300 301 306 306 304 300 302 306 307 310 310 307 305 303 299 300 300 299 298 297 296 296
296 296 291 291 300 292 286 288 290 293 293 294 294 295 295 296 296 296 298 298 298 298 300 301 304 304 305 303 301 304 304 307 306 305 304 305 302 299 299 298 298 297 297 296 295
296 299 295 288 287 291 290 291 292 291 293 294 295 294 295 295 295 296 298 297 298 297 297 301 303 303 304 305 303 301 304 303 303 303 300 301 299 299 298 298 297 296 295 294 293
292 294 290 297 293 291 292 291 293 294 293 294 293 294 295 295 295 294 296 297 298 296 296 296 303 302 302 303 302 301 301 302 303 302 301 300 298 297 297 297 297 295 294 293 292
294 295 290 289 291 293 292 294 293 293 294 294 294 294 294 295 297 296 295 295 297 294 295 294 302 297 301 298 301 301 299 301 300 301 301 300 298 296 295 295 296 295 294 293 292
290 290 294 293 292 294 295 294 295 294 294 294 294 293 293 294 294 294 293 293 292 293 294 294 293 295 306 296 302 302 297 298 300 299 300 299 298 296 294 293 292 294 293 292 291
Wind_Speed
7 8 8 9 9 10 11 11 12 12 11 13 13 14 17 19 20 14 4 5 2 6 6 5 6 7 3 1 3 3 7 14 20 17 16 11 14 13 6 7 9 10 12 5 9
6 7 8 9 9 10 11 12 12 12 11 13 13 13 17 19 18 5 9 7 6 2 4 7 7 7 1 1 2 8 7 12 8 5 9 7 6 6 6 12 11 10 7 7 11
8 9 10 12 10 10 11 12 12 12 14 13 13 12 15 17 7 2 4 9 10 7 6 5 5 5 2 2 3 4 8 6 11 7 9 9 12 9 7 14 12 10 9 16 18
12 13 9 12 12 13 13 13 13 15 13 13 13 12 12 9 6 2 3 8 7 8 5 5 5 6 4 4 4 8 9 10 8 9 10 14 13 15 14 15 12 12 11 14 16
13 10 12 15 15 14 13 14 14 15 14 14 14 12 5 6 6 3 7 11 11 10 6 9 9 7 8 4 7 13 13 12 12 14 16 17 19 20 21 16 15 21 19 18 16
12 14 15 13 11 12 13 14 15 16 16 17 15 11 2 11 4 3 5 9 8 4 1 2 2 2 7 9 10 8 14 17 16 15 12 15 19 17 17 12 13 13 16 15 16
18 15 10 13 16 16 16 16 17 18 17 16 14 6 5 13 7 10 11 8 8 6 8 8 7 5 3 7 6 11 17 18 18 17 15 12 22 25 17 16 20 18 16 16 19
12 12 15 17 12 12 13 15 17 18 16 15 11 4 6 6 8 13 12 11 12 13 13 11 5 6 10 7 8 11 13 12 2 6 6 9 25 16 6 11 16 17 16 19 17
15 13 13 13 13 14 16 17 19 16 12 6 2 4 6 6 5 6 5 7 4 3 5 3 7 5 4 8 10 8 12 18 17 14 5 14 19 14 7 14 19 19 18 18 17
14 12 16 16 15 14 14 15 13 3 4 5 4 3 3 3 6 9 10 8 6 3 3 6 5 5 6 9 11 10 12 15 16 0 14 15 24 20 18 16 18 17 14 13 16
15 17 11 11 9 9 11 4 2 1 3 3 6 5 6 12 13 5 3 3 4 4 5 7 5 13 21 22 23 19 20 25 20 8 11 19 23 25 20 18 19 19 17 17 19
14 8 7 7 6 6 5 4 4 1 6 1 4 6 9 3 6 7 4 4 3 7 7 6 14 23 21 20 22 22 24 28 26 18 14 21 25 24 22 20 21 20 19 17 17
7 7 5 4 2 4 8 6 2 1 3 3 3 3 4 3 6 6 7 2 5 8 11 11 20 13 16 19 20 21 25 24 24 12 17 19 21 23 24 21 23 23 21 20 19
7 6 3 0 2 2 3 3 2 0 2 5 2 1 3 6 5 7 6 4 4 7 7 12 16 13 15 23 21 22 24 26 23 12 11 14 10 16 19 20 22 23 21 20 20
7 4 2 1 4 2 2 2 1 0 1 11 5 5 14 3 8 2 2 4 12 12 4 12 16 17 17 25 18 19 12 12 17 14 18 22 8 17 19 18 21 22 20 21 20
8 6 6 4 4 3 1 2 1 1 3 5 6 11 11 4 3 7 4 6 9 11 14 22 17 15 16 15 12 4 2 5 9 10 12 18 17 17 17 22 23 23 20 21 15
10 9 4 2 3 1 1 2 1 3 3 7 6 11 12 6 8 5 9 8 5 8 12 17 3 4 5 5 3 4 6 3 4 6 8 2 11 17 10 8 9 13 20 15 15
12 7 9 7 3 1 2 2 3 1 4 4 7 11 4 9 3 10 7 6 4 8 12 10 10 1 2 6 4 10 7 4 6 5 4 4 7 3 12 12 16 16 14 17 13
11 8 4 6 3 2 3 4 1 4 3 8 7 4 5 4 4 8 5 5 5 7 8 7 7 4 12 8 3 5 9 5 5 5 6 6 2 4 16 8 11 16 15 13 12
7 4 4 3 3 3 4 2 2 3 2 2 4 2 4 7 9 10 6 3 7 8 9 5 10 2 5 4 3 6 2 4 5 4 5 4 3 11 15 10 12 16 14 14 12
5 2 4 2 3 4 2 2 4 6 5 1 2 3 5 5 6 6 6 9 6 12 14 8 5 8 7 6 12 7 5 5 4 6 4 3 4 13 12 10 10 11 12 13 13
5 1 5 1 3 1 2 5 5 3 1 2 3 4 4 5 5 4 5 5 11 12 11 3 5 7 4 4 14 7 10 4 4 2 4 3 4 14 11 11 10 14 13 13 13
3 1 4 2 2 2 1 1 2 2 2 1 3 3 4 3 4 6 4 5 9 10 13 8 5 7 7 3 16 7 19 5 7 3 15 4 4 10 14 15 14 13 13 14 15
3 2 2 4 1 5 4 2 2 2 2 2 3 3 5 2 4 6 7 5 12 5 16 3 4 7 8 8 11 17 26 25 11 9 13 11 11 14 16 14 12 13 15 14 11
3 1 1 2 1 4 2 5 3 2 3 3 2 5 2 3 3 4 5 10 9 9 10 5 3 2 5 13 19 23 23 24 23 15 10 11 16 14 13 13 13 13 14 13 13
4 4 3 2 4 5 0 5 5 2 4 2 4 5 6 5 4 5 7 4 3 12 9 9 3 2 1 8 10 21 24 21 20 13 13 12 16 12 12 14 16 14 12 11 13
5 3 2 3 3 3 3 5 5 4 4 4 3 3 6 9 7 11 11 12 10 7 6 8 6 6 3 8 8 12 15 16 12 15 9 13 8 10 16 17 15 12 13 12 11
Wind_Direction
346 342 339 341 337 345 340 331 330 336 334 339 337 332 328 328 329 335 22 318 330 331 350 347 0 356 325 296 299 235 244 248 243 240 244 243 252 231 318 270 233 227 245 5 350
343 346 338 331 323 331 333 325 324 329 330 331 326 329 331 330 336 38 25 79 9 2 11 5 5 1 319 313 239 224 239 257 272 299 254 291 261 296 291 233 238 239 239 354 0
349 331 325 333 323 324 327 328 319 318 321 322 322 327 327 332 320 97 75 60 42 50 46 35 19 10 315 282 206 231 248 286 263 296 301 284 279 266 264 250 241 270 317 325 329
326 330 327 328 328 323 318 316 316 314 316 319 318 317 322 341 330 193 157 313 313 331 347 349 337 332 307 270 255 263 254 262 277 287 295 275 288 270 262 270 296 291 297 306 307
316 322 320 316 312 315 316 314 311 309 310 311 314 321 332 295 273 288 290 299 304 299 307 308 293 291 272 275 281 257 269 268 270 268 269 276 264 267 270 273 281 282 282 283 280
313 312 311 317 323 322 318 315 309 305 305 309 314 324 233 285 255 308 311 312 324 322 315 299 308 340 285 270 264 295 285 281 270 266 266 266 265 260 254 269 272 268 278 270 268
308 305 310 317 316 312 310 312 308 303 306 307 310 320 234 266 277 290 289 284 276 251 268 265 262 258 328 285 304 284 290 289 268 250 250 256 265 250 255 251 259 259 268 268 263
317 308 314 314 319 322 320 316 312 308 306 300 295 278 265 263 277 283 283 275 267 255 256 267 225 246 243 277 274 276 278 283 311 230 233 203 268 261 270 232 246 248 252 259 264
295 304 314 322 320 319 317 314 310 307 306 319 163 192 269 296 286 293 272 269 267 252 230 210 171 203 186 227 255 222 265 249 271 235 233 207 265 277 265 248 257 261 252 256 260
306 306 314 315 313 316 318 318 312 3 48 91 93 234 248 333 302 289 281 255 254 227 210 203 200 211 208 209 240 243 240 252 251 131 220 232 249 262 268 263 262 261 257 256 264
308 312 323 326 319 322 342 346 326 170 37 315 308 274 297 312 294 254 242 207 211 200 226 197 212 228 231 223 239 272 268 269 271 279 252 242 254 263 262 262 260 256 255 252 260
316 320 308 317 331 346 17 62 61 14 304 349 271 270 286 299 298 285 186 230 182 246 244 232 229 241 253 254 248 249 257 259 269 254 236 258 258 260 263 258 259 261 249 248 253
307 305 300 327 10 44 78 92 73 343 282 307 304 297 308 299 301 283 195 222 233 258 254 255 261 272 254 255 251 237 239 256 254 279 237 265 268 263 258 248 253 251 249 248 248
272 285 310 27 79 85 68 69 44 278 349 352 346 28 298 296 264 247 234 265 251 285 265 254 265 263 257 253 245 255 238 250 262 256 250 201 269 262 251 243 241 248 237 232 240
252 216 184 135 126 65 83 23 20 142 315 339 314 317 328 281 323 211 228 231 267 266 253 263 284 274 256 260 270 268 288 235 240 251 264 248 254 258 250 255 247 245 234 225 228
189 175 148 115 86 89 24 45 63 265 304 345 319 347 353 321 288 307 288 227 272 279 254 258 265 277 265 275 257 294 128 202 237 246 247 249 220 263 245 243 254 243 222 216 207
164 154 145 115 103 45 62 84 4 61 17 331 334 337 335 297 313 322 319 301 305 311 318 314 257 282 249 259 172 163 160 210 224 218 254 313 208 253 323 237 241 263 211 177 154
149 149 86 83 67 58 74 68 49 96 277 318 317 326 320 342 316 319 306 326 358 307 308 338 319 204 167 233 252 192 192 195 239 224 287 146 238 231 314 273 261 258 150 144 117
146 106 65 30 45 30 70 55 226 195 288 325 324 350 323 334 332 338 329 307 327 352 359 307 270 252 289 278 214 169 218 204 275 244 272 200 307 212 349 314 158 119 131 103 108
149 103 40 10 24 62 71 125 202 226 286 340 0 4 316 320 332 341 319 327 319 0 350 283 288 245 306 297 271 258 114 193 212 265 234 93 54 336 339 6 114 108 107 101 104
133 90 0 25 47 49 80 166 229 235 237 293 297 293 272 303 311 312 296 303 358 323 324 277 247 307 324 30 346 319 269 247 233 236 313 62 23 343 8 26 74 95 95 95 92
124 108 359 66 43 31 115 175 211 255 90 253 265 262 255 303 297 290 289 295 333 328 329 274 306 306 306 346 354 293 292 235 271 76 48 81 42 353 21 35 64 77 79 79 78
108 101 15 85 155 107 189 254 241 229 192 253 255 252 296 275 304 272 288 280 331 338 340 326 346 328 344 333 2 355 21 46 46 22 25 42 8 355 25 35 39 66 72 70 62
120 125 29 57 18 129 146 180 212 244 246 279 286 305 293 269 224 295 302 291 318 328 351 327 26 26 16 350 353 21 26 34 50 59 64 56 52 20 28 36 42 51 58 61 63
28 132 46 160 146 122 138 161 178 168 222 212 258 232 302 296 296 255 301 311 316 360 3 36 351 359 63 41 34 32 24 28 44 35 53 46 51 27 31 43 47 56 58 57 60
136 148 98 99 129 133 40 200 186 195 196 206 232 282 265 232 237 300 340 328 342 327 355 359 307 332 237 341 28 33 20 27 33 25 48 51 52 18 32 42 44 46 53 56 59
144 108 105 160 150 160 196 177 195 157 206 242 267 303 265 259 272 276 276 272 277 309 321 349 335 355 15 354 339 29 359 359 23 25 18 41 33 30 42 41 27 41 51 55 58